Regional Weather Roundup
Issued by NWS

Home | Current Version | Previous Version | Text Only | Print | Product List | Glossary On
Versions: 1 2 3 4 5 6 7 8 9 10 11 12 13 14 15 16 17 18 19 20 21 22 23 24 25 26 27 28 29 30 31 32 33 34 35 36 37 38 39 40 41 42 43 44 45 46 47 48 49 50
000
ASUS46 KSEW 232010
RWRWA

WASHINGTON REGIONAL WEATHER ROUNDUP
NATIONAL WEATHER SERVICE SEATTLE WA
100 PM PDT SAT SEP 23 2017

NOTE:"FAIR" INDICATES FEW OR NO CLOUDS BELOW 12,000 FEET WITH NO
SIGNIFICANT WEATHER AND/OR OBSTRUCTIONS TO VISIBILITY.

WAZ507-509-555>559-232100-
SEATTLE, TACOMA, EVERETT, AND VICINITY

CITY           SKY/WX    TMP DP  RH WIND       PRES   REMARKS
EVERETT        MOSUNNY   62  50  64 SW7       30.11S
BOEING FIELD   MOSUNNY   64  51  62 S7        30.10S
RENTON         MOSUNNY   67  51  56 SE5       30.09F
SEATAC AIRPORT PTSUNNY   63  51  65 W7        30.11F
JBLM-MCCHORD   SUNNY     67  54  63 NE5       30.10S
PUYALLUP       FAIR      68  48  49 VRB6      30.10S
BREMERTON      MOSUNNY   62  51  67 VRB3      30.11S
JBLM-FT LEWIS  MOSUNNY   66  51  57 CALM      30.09F
TACOMA NARROWS MOSUNNY   62  52  69 VRB3      30.11F
$$

WAZ001-503-506-510-514-515-232100-
NORTH INTERIOR

CITY           SKY/WX    TMP DP  RH WIND       PRES   REMARKS
BELLINGHAM     MOSUNNY   63  50  62 S8        30.09F
FRIDAY HARBOR  MOSUNNY   64  48  56 E5        30.11S
EASTSOUND      MOSUNNY   59  50  72 N5        30.10S
PORT ANGELES   MOSUNNY   61  47  59 VRB6      30.10S
EDIZ HOOK      FAIR      56  50  81 N3        30.10S
PORT TOWNSEND  FAIR      66  50  55 E8        30.09F
NAS WHIDBEY    PTSUNNY   66  44  45 NW7       30.13F
ARLINGTON      SUNNY     67  50  54 S3        30.09F
BURLINGTON     MOSUNNY   66  50  55 VRB5      30.09F
$$

WAZ020-022-039-040-504-511-512-232100-
SOUTHWEST INTERIOR

CITY           SKY/WX    TMP DP  RH WIND       PRES   REMARKS
SHELTON        SUNNY     68  48  48 VRB5      30.07F
OLYMPIA        MOSUNNY   66  49  54 CALM      30.09F
CHEHALIS       FAIR      68  50  52 SW5       30.10S
KELSO          SUNNY     65  50  58 S5        30.11S
VANCOUVER      SUNNY     64  50  60 VRB3      30.10F
SCAPPOOSE, OR  SUNNY     64  51  62 CALM      30.09F
PORTLAND, OR   MOSUNNY   64  52  64 VRB3      30.10F
$$

WAZ021-516-517-232100-
WASHINGTON COAST

CITY           SKY/WX    TMP DP  RH WIND       PRES   REMARKS
FORKS          MOSUNNY   64  54  69 SW7       30.10R
HOQUIAM        CLOUDY    62  56  80 SW7       30.10S
ASTORIA, OR    PTSUNNY   63  54  72 N6        30.09S
$$

WAZ019-023-024-040-567>569-232100-
CASCADE MOUNTAINS AND COLUMBIA GORGE

CITY           SKY/WX    TMP DP  RH WIND       PRES   REMARKS
STAMPEDE PASS  NOT AVBL
TROUTDALE, OR  SUNNY     66  50  56 N5        30.10F
HOOD RIVER, OR NOT AVBL
THE DALLES, OR SUNNY     72  46  39 NW12      30.04F
$$

WAZ026-027-041>044-520-521-232100-
EAST SLOPES

CITY           SKY/WX    TMP DP  RH WIND       PRES   REMARKS
OMAK           CLOUDY    61  42  49 SE3       30.07S
WENATCHEE      MOSUNNY   65  37  35 VRB3      30.05S
ELLENSBURG     SUNNY     68  40  35 VRB5      30.05S
YAKIMA         SUNNY     69  40  34 S6        30.05F
SUNNYSIDE ARPT CLEAR     64  42  43 SE3       30.06F
YAKIMA TC      FAIR      67  33  28 CALM      30.03F
$$

WAZ028-034-035-232100-
COLUMBIA BASIN

CITY           SKY/WX    TMP DP  RH WIND       PRES   REMARKS
EPHRATA        MOSUNNY   64  38  38 W6        30.06S
MOSES LAKE     MOSUNNY   66  41  40 SW9       30.07S
PASCO          SUNNY     68  43  40 S7        30.06F
RICHLAND ARPT  CLEAR     69  46  43 CALM      30.06F
HERMISTON, OR  SUNNY     68  45  43 NW5       30.06F
$$

WAZ036>038-232100-
NORTHEAST WASHINGTON

CITY           SKY/WX    TMP DP  RH WIND       PRES   REMARKS
SPOKANE GEIGER PTSUNNY   58  39  49 W9        30.09S
SPOKANE FELTS  MOSUNNY   60  41  49 SW9       30.09S
FAIRCHILD AFB  MOSUNNY   60  40  48 S6        30.08S
COEURDALENE,ID MOSUNNY   57  41  55 SE7       30.09F
DEER PARK      MOSUNNY   60  40  47 S9        30.08S
$$

WAZ029>033-232100-
SOUTHEAST WASHINGTON

CITY           SKY/WX    TMP DP  RH WIND       PRES   REMARKS
PULLMAN        PTSUNNY   55  40  56 VRB5      30.12S
LEWISTON, ID   PTSUNNY   60  44  55 VRB3      30.10F
WALLA WALLA    MOSUNNY   64  42  44 CALM      30.08S
PENDLETON, OR  SUNNY     64  40  41 S3        30.07S
$$



USA.gov is the U.S. government's official web portal to all federal, state and local government web resources and services.